Regional Weather Roundup
Issued by NWS Midland/Odessa, TX

Skip options and go directly to product.
Home | Oldest Version | Previous Version | Current Version | All | Graphics & Text | Save Text | Print | Product List | Glossary On

Skip product version selection by date and time.   
553
ASUS44 KMAF 021610
RWRMAF
MIDLAND AREA WEATHER ROUNDUP
NATIONAL WEATHER SERVICE MIDLAND TX
1100 AM CDT THU JUL 02 2015

...IN SOUTHWEST TEXAS AND SOUTHEAST NEW MEXICO...

CITY           SKY/WX    TMP DP  RH WIND       PRES   REMARKS
ALPINE         NOT AVBL
ANDREWS        NOT AVBL
ARTESIA        MOSUNNY   77  66  69 E5        30.07F
BIG SPRING     NOT AVBL
CARLSBAD       MOSUNNY   78  65  63 E7        30.05S
DRYDEN           N/A     79  66  64 VRB7      30.00F
FORT STOCKTON  SUNNY     82  66  58 SE10      30.01F
GUAD PASS      PTSUNNY   78  61  55 NE18      30.16S
HOBBS          SUNNY     75  64  69 E7        30.07F
MARFA          SUNNY     79  61  53 SE5       30.14F
MIDLAND AIRPK  MOSUNNY   77  64  63 SE8       30.05F
MIDLAND INTL   MOSUNNY   76  64  66 SE10      30.04R
ODESSA         MOSUNNY   75  64  68 MISG      30.05S
PECOS          SUNNY     81  64  57 E8        29.99
PRESIDIO       NOT AVBL
SEMINOLE       NOT AVBL
SNYDER         NOT AVBL
WINK           PTSUNNY   78  64  61 E9        30.00F
$$
...OTHER STATIONS IN TEXAS...

CITY           SKY/WX    TMP DP  RH WIND       PRES   REMARKS
ABILENE        SUNNY     80  65  59 S16       30.02F
AMARILLO       CLOUDY    77  66  68 SW3       30.03S
AUSTIN         MOSUNNY   82  73  74 S13G20    30.03F
BROWNSVILLE    HVY RAIN  73  71  93 S26G36    30.04R VSB 1/2
CORPUS CHRISTI PTSUNNY   85  76  74 S16       30.01S
DALLAS FTW     MOSUNNY   85  64  49 SW21G30   29.99F
DEL RIO        CLOUDY    78  67  68 SE14G23   30.00S
EL PASO        PTSUNNY   85  52  32 E3        30.02S
HOUSTON INT    CLOUDY    85  76  74 S8        30.04F
LUBBOCK        MOSUNNY   81  66  60 S8        30.03S
SAN ANGELO     SUNNY     80  65  59 S15       30.03F
SAN ANTONIO    PTSUNNY   81  71  71 S15       30.03F
WACO           PTSUNNY   83  69  62 S17G26    30.02F
WICHITA FALLS  NOT AVBL
$$
...OTHER LOCATIONS IN NEW MEXICO...

CITY           SKY/WX    TMP DP  RH WIND       PRES   REMARKS
ALAMAGORDO     MOSUNNY   86  50  28 W8        30.06S
ALBUQUERQUE    MOSUNNY   80  54  40 VRB7      30.16F
CANNON AFB     PTSUNNY   75  61  63 E9        30.07F
CLOVIS         CLOUDY    77  61  57 NE6         N/A
HOLLOMAN AFB   MOSUNNY   85  50  30 W9        30.04R
ROSWELL        LGT RAIN  79  63  57 VRB5      30.06F
RUIDOSO        MOSUNNY   75  50  41 SE7       30.28S
SANTA FE       PTSUNNY   69  56  62 N9        30.22F
TRUTH OR CONSE MOSUNNY   86  53  32 N10       30.10R
TUCUMCARI        N/A     78  61  55 VRB5      30.07S
$$

USA.gov is the U.S. government's official web portal to all federal, state and local government web resources and services.